User: anonymous   Login
Location: Feydey
(46.3431°N, 7.0106°E)
Time: 12:09:04
(UTC+00:00)
Language:

MTI - Orbit

View from above orbital plane
View from above orbital plane
View from above satellite
View from above satellite

Ground track
Ground track

The orbit data is extracted from the following two-line orbital elements,

1 26102U 00014A   21260.67445861  .00015893  00000-0  17326-3 0  9996
2 26102  97.4581 172.2300 0005342 356.2047   3.9128 15.63468629195742
Epoch (UTC): 17 September 2021 16:11:13
Eccentricity: 0.0005342
inclination: 97.4581°
perigee height: 374 km
apogee height: 381 km
right ascension of ascending node: 172.2300°
argument of perigee: 356.2047°
revolutions per day: 15.63468629
mean anomaly at epoch: 3.9128°
orbit number at epoch: 19574

The dashed part of the orbit path shows where the satellite is in the earth's shadow,  

DLR